Date String (YYYY-MM-DD hh:mm:ss) UTC,Instrument flags,absolute air pressure of the measurement (hPa),sample flow rate (lpm),inlet stack bypass flow (lpm),air temperature of the measurement (°C),ambient temperature measured by the external sensor (°C),aerosol sample conditioner tube jacket temperature (°C),OPC LED temperature (°C),internal box temperature (°C),relative humidity of the measurement (%),span deviation,mass concentration of particles derived from Lorenz-Mie calculation of OPC scattering (μg/m³),mass concentration of particles derived from Lorenz-Mie calculation of OPC scattering (μg/m³),mass concentration of particles derived from Lorenz-Mie calculation of OPC scattering (μg/m³)
DateTimeUTC,F1_M11,P_M11,Q1_M11,Q2_M11,T1_M11,T2_M11,T3_M11,T4_M11,T5_M11,U1_M11,ZSPAN_M11,X0_M11,X2_M11,X1_M11
2024-05-31 11:00:00,SystemResetWarning,0832.0,5.00,000.00,030.3,029.5,000.0,038.9,032.1,020.7,0000.0,0011.28,0003.26,0002.00
2024-05-31 11:01:00,SystemResetWarning,0832.1,5.00,000.00,030.3,029.4,000.0,038.9,032.1,020.7,0000.0,0010.75,0003.24,0001.99
2024-05-31 11:02:00,SystemResetWarning,0832.1,5.00,000.00,030.3,029.4,000.0,038.9,032.0,020.8,0000.0,0010.06,0003.22,0001.99
2024-05-31 11:03:00,SystemResetWarning,0832.1,4.99,000.00,030.3,029.4,000.0,038.9,032.0,021.0,0000.0,0010.19,0003.24,0002.00
2024-05-31 11:04:00,SystemResetWarning,0832.1,5.00,000.00,030.3,029.4,000.0,038.9,032.0,020.8,0000.0,0009.23,0003.27,0002.00
2024-05-31 11:05:00,SystemResetWarning,0832.2,5.00,000.00,030.3,029.4,000.0,038.9,032.0,020.8,0000.0,0009.65,0003.27,0001.98
2024-05-31 11:06:00,SystemResetWarning,0832.2,5.00,000.00,030.3,029.4,000.0,038.9,032.0,020.9,0000.0,0009.50,0003.27,0001.98
2024-05-31 11:07:00,SystemResetWarning,0832.2,5.01,000.00,030.3,029.4,000.0,038.9,032.0,020.9,0000.0,0009.32,0003.24,0001.97
2024-05-31 11:08:00,SystemResetWarning,0832.2,5.00,000.00,030.3,029.4,000.0,038.8,032.0,021.1,0000.0,0009.24,0003.21,0001.98
2024-05-31 11:09:00,SystemResetWarning,0832.2,4.99,000.00,030.3,029.4,000.0,038.8,032.0,021.2,0000.0,0009.35,0003.21,0001.97
2024-05-31 11:10:00,SystemResetWarning,0832.2,5.00,000.00,030.3,029.4,000.0,038.8,032.0,021.0,0000.0,0009.79,0003.22,0001.97
2024-05-31 11:11:00,SystemResetWarning,0832.3,5.00,000.00,030.3,029.4,000.0,038.8,032.0,021.0,0000.0,0009.84,0003.18,0001.97
2024-05-31 11:12:00,SystemResetWarning,0832.3,5.01,000.00,030.3,029.4,000.0,038.8,032.0,021.0,0000.0,0009.52,0003.13,0001.98
2024-05-31 11:13:00,SystemResetWarning,0832.3,5.00,000.00,030.3,029.4,000.0,038.8,032.0,021.0,0000.0,0010.10,0003.13,0001.97
2024-05-31 11:14:00,SystemResetWarning,0832.3,5.00,000.00,030.3,029.4,000.0,038.8,032.0,021.1,0000.0,0009.91,0003.12,0001.95
2024-05-31 11:15:00,SystemResetWarning,0832.3,5.00,000.00,030.3,029.4,000.0,038.8,032.0,021.2,0000.0,0009.67,0003.08,0001.95
2024-05-31 11:16:00,SystemResetWarning,0832.4,5.00,000.00,030.3,029.4,000.0,038.8,032.0,021.2,0000.0,0010.43,0003.06,0001.96
2024-05-31 11:17:00,SystemResetWarning,0832.4,5.00,000.00,030.3,029.4,000.0,038.8,032.0,021.2,0000.0,0010.17,0003.11,0001.96
2024-05-31 11:18:00,SystemResetWarning,0832.5,4.99,000.00,030.3,029.4,000.0,038.8,032.0,021.2,0000.0,0010.25,0003.13,0001.98
2024-05-31 11:19:00,SystemResetWarning,0832.6,4.99,000.00,030.3,029.4,000.0,038.8,032.0,021.3,0000.0,0010.50,0003.15,0001.98
2024-05-31 11:20:00,SystemResetWarning,0832.5,5.01,000.00,030.3,029.4,000.0,038.8,032.0,021.3,0000.0,0011.39,0003.15,0001.97
2024-05-31 11:21:00,SystemResetWarning,0832.5,5.01,000.00,030.3,029.4,000.0,038.8,032.0,021.2,0000.0,0011.48,0003.16,0001.97
2024-05-31 11:22:00,SystemResetWarning,0832.6,5.00,000.00,030.2,029.4,000.0,038.8,032.0,021.3,0000.0,0011.77,0003.13,0001.96
2024-05-31 11:23:00,SystemResetWarning,0832.5,4.99,000.00,030.2,029.4,000.0,038.8,032.0,021.1,0000.0,0011.67,0003.13,0001.95
2024-05-31 11:24:00,SystemResetWarning,0832.5,4.99,000.00,030.2,029.3,000.0,038.8,032.0,021.2,0000.0,0011.14,0003.11,0001.95
2024-05-31 11:25:00,SystemResetWarning,0832.6,5.00,000.00,030.2,029.4,000.0,038.8,032.0,021.2,0000.0,0011.22,0003.11,0001.96
2024-05-31 11:26:00,SystemResetWarning,0832.5,5.00,000.00,030.2,029.3,000.0,038.8,032.0,021.3,0000.0,0011.27,0003.15,0001.96
2024-05-31 11:27:00,SystemResetWarning,0832.5,5.01,000.00,030.2,029.3,000.0,038.8,032.0,021.4,0000.0,0009.62,0003.14,0001.95
2024-05-31 11:28:00,SystemResetWarning,0832.5,5.00,000.00,030.2,029.3,000.0,038.8,032.0,021.5,0000.0,0009.37,0003.14,0001.95
2024-05-31 11:29:00,SystemResetWarning,0832.5,4.99,000.00,030.2,029.3,000.0,038.8,032.0,021.5,0000.0,0009.75,0003.10,0001.93
2024-05-31 11:30:00,SystemResetWarning,0832.5,4.99,000.00,030.2,029.3,000.0,038.8,032.0,021.5,0000.0,0009.80,0003.09,0001.93
2024-05-31 11:31:00,SystemResetWarning,0832.5,5.00,000.00,030.2,029.3,000.0,038.8,032.0,021.6,0000.0,0009.32,0003.11,0001.94
2024-05-31 11:32:00,SystemResetWarning,0832.5,5.01,000.00,030.2,029.3,000.0,038.8,032.0,021.6,0000.0,0008.88,0003.09,0001.95
2024-05-31 11:33:00,SystemResetWarning,0832.5,5.01,000.00,030.2,029.3,000.0,038.8,032.0,021.7,0000.0,0008.19,0003.12,0001.96
2024-05-31 11:34:00,SystemResetWarning,0832.6,4.98,000.00,030.2,029.3,000.0,038.8,032.0,021.7,0000.0,0008.33,0003.14,0001.98
2024-05-31 11:35:00,SystemResetWarning,0832.6,4.99,000.00,030.2,029.3,000.0,038.7,032.0,021.8,0000.0,0008.26,0003.16,0001.99
2024-05-31 11:36:00,SystemResetWarning,0832.6,5.01,000.00,030.2,029.3,000.0,038.7,032.0,021.9,0000.0,0008.30,0003.16,0001.98
2024-05-31 11:37:00,SystemResetWarning,0832.6,5.01,000.00,030.2,029.3,000.0,038.7,032.0,021.8,0000.0,0008.09,0003.12,0001.97
2024-05-31 11:38:00,SystemResetWarning,0832.6,4.99,000.00,030.2,029.3,000.0,038.7,031.9,021.8,0000.0,0008.01,0003.11,0001.98
2024-05-31 11:39:00,SystemResetWarning,0832.6,5.00,000.00,030.2,029.3,000.0,038.7,031.9,021.9,0000.0,0008.13,0003.13,0001.98
2024-05-31 11:40:00,SystemResetWarning,0832.6,5.01,000.00,030.2,029.3,000.0,038.7,031.9,022.0,0000.0,0007.76,0003.14,0001.99
2024-05-31 11:41:00,SystemResetWarning,0832.6,5.00,000.00,030.2,029.3,000.0,038.7,031.9,022.2,0000.0,0007.80,0003.16,0002.00
2024-05-31 11:42:00,SystemResetWarning,0832.6,5.00,000.00,030.2,029.3,000.0,038.7,031.9,022.2,0000.0,0007.30,0003.14,0001.99
2024-05-31 11:43:00,SystemResetWarning,0832.6,5.00,000.00,030.2,029.3,000.0,038.7,031.9,022.1,0000.0,0007.19,0003.11,0001.99
2024-05-31 11:44:00,SystemResetWarning,0832.7,4.99,000.00,030.2,029.3,000.0,038.7,031.9,022.1,0000.0,0007.24,0003.11,0001.98
2024-05-31 11:45:00,SystemResetWarning,0832.7,5.00,000.00,030.2,029.3,000.0,038.7,031.9,022.1,0000.0,0007.19,0003.11,0001.97
2024-05-31 11:46:00,SystemResetWarning,0832.7,5.00,000.00,030.2,029.3,000.0,038.7,031.9,022.2,0000.0,0007.20,0003.11,0001.97
2024-05-31 11:47:00,SystemResetWarning,0832.7,5.00,000.00,030.2,029.3,000.0,038.7,031.9,022.2,0000.0,0007.27,0003.13,0001.99
2024-05-31 11:48:00,SystemResetWarning,0832.7,5.02,000.00,030.2,029.3,000.0,038.7,031.9,022.2,0000.0,0007.08,0003.12,0002.00
2024-05-31 11:49:00,SystemResetWarning,0832.7,4.99,000.00,030.2,029.3,000.0,038.7,031.9,022.3,0000.0,0007.14,0003.10,0002.01
2024-05-31 11:50:00,SystemResetWarning,0832.7,4.99,000.00,030.1,029.3,000.0,038.7,031.9,022.3,0000.0,0006.74,0003.01,0002.02
2024-05-31 11:51:00,SystemResetWarning,0832.8,4.99,000.00,030.1,029.3,000.0,038.7,031.9,022.4,0000.0,0006.95,0003.06,0002.03
2024-05-31 11:52:00,SystemResetWarning,0832.8,5.01,000.00,030.1,029.3,000.0,038.7,031.9,022.4,0000.0,0007.16,0003.08,0002.04
2024-05-31 11:53:00,SystemResetWarning,0832.8,5.01,000.00,030.1,029.3,000.0,038.7,031.9,022.3,0000.0,0007.14,0003.08,0002.04
2024-05-31 11:54:00,SystemResetWarning,0832.8,4.99,000.00,030.1,029.3,000.0,038.7,031.9,022.4,0000.0,0007.26,0003.12,0002.07
2024-05-31 11:55:00,SystemResetWarning,0832.8,4.99,000.00,030.1,029.3,000.0,038.7,031.9,022.4,0000.0,0007.27,0003.15,0002.08
2024-05-31 11:56:00,SystemResetWarning,0832.8,5.00,000.00,030.1,029.3,000.0,038.7,031.9,022.4,0000.0,0007.23,0003.14,0002.09
2024-05-31 11:57:00,SystemResetWarning,0832.8,5.00,000.00,030.1,029.3,000.0,038.7,031.9,022.5,0000.0,0007.20,0003.14,0002.11
2024-05-31 11:58:00,SystemResetWarning,0832.9,5.01,000.00,030.1,029.3,000.0,038.7,031.9,022.6,0000.0,0007.10,0003.13,0002.11
2024-05-31 11:59:00,SystemResetWarning,0833.0,5.01,000.00,030.1,029.3,000.0,038.7,031.9,022.6,0000.0,0008.19,0003.19,0002.12
